This is the latest recevied weather packets stored in our database for station/object KC3BHK-2. If no packets are shown the sender has not sent any weather packets the latest 1 day(s).
| Time | Temp. | Humidity | Pressure | Rain* | Wind** | Luminosity | Snow |
|---|---|---|---|---|---|---|---|
| 1778065008 | 16.67° C | - | - | 0 mm | 2.68 m/s, 181° | - | - |
| 1778064091 | 17.78° C | - | - | 0 mm | 1.79 m/s, 153° | - | - |
| 1778063786 | 17.78° C | - | - | 0 mm | 2.24 m/s, 184° | - | - |
| 1778063481 | 17.22° C | - | - | 0 mm | 1.79 m/s, 174° | - | - |
| 1778062564 | 16.67° C | - | - | 0 mm | 4.47 m/s, 148° | - | - |
| 1778062259 | 17.22° C | - | - | 0 mm | 2.68 m/s, 173° | - | - |
| 1778061040 | 17.22° C | - | - | 0 mm | 4.02 m/s, 170° | - | - |
| 1778060732 | 18.33° C | - | - | 0 mm | 4.02 m/s, 176° | - | - |
| 1778059818 | 19.44° C | - | - | 0 mm | 2.68 m/s, 210° | - | - |
| 1778059513 | 18.89° C | - | - | 0 mm | 4.92 m/s, 153° | - | - |
| 1778058901 | 19.44° C | - | - | 0 mm | 4.47 m/s, 190° | - | - |
| 1778058596 | 19.44° C | - | - | 0 mm | 4.47 m/s, 122° | - | - |
| 1778057987 | 18.89° C | - | - | 0 mm | 3.13 m/s, 162° | - | - |
| 1778057682 | 19.44° C | - | - | 0 mm | 4.02 m/s, 173° | - | - |
| 1778056764 | 19.44° C | - | - | 0 mm | 3.58 m/s, 141° | - | - |
| 1778055850 | 18.89° C | - | - | 0 mm | 3.13 m/s, 152° | - | - |
| 1778055545 | 19.44° C | - | - | 0 mm | 3.13 m/s, 187° | - | - |
| 1778054933 | 18.89° C | - | - | 0 mm | 3.58 m/s, 146° | - | - |
| 1778054628 | 18.89° C | - | - | 0 mm | 3.58 m/s, 183° | - | - |
| 1778054323 | 19.44° C | - | - | 0 mm | 4.47 m/s, 138° | - | - |
| 1778053713 | 18.89° C | - | - | 0 mm | 2.68 m/s, 150° | - | - |
| 1778052795 | 19.44° C | - | - | 0 mm | 2.24 m/s, 155° | - | - |
| 1778051268 | 20° C | - | - | 0 mm | 4.47 m/s, 134° | - | - |
| 1778050963 | 20° C | - | - | 0 mm | 3.13 m/s, 145° | - | - |
| 1778050354 | 20° C | - | - | 0 mm | 8.05 m/s, 149° | - | - |
* Rain latest hour (hover to see other rain measurements)
** Current wind speed in m/s (hover to see current wind gust speed)